Terug naar catalogus

INMARSAT 2-F4

ActiefCommunicatieGEO
NORAD 21940·PAYLOAD·🇮🇲 IM

Gelanceerd Apr 15, 1992 vanaf Guiana Space Centre

Loading…

TLE

VersSource: Space-Track

Epoch: Sep 13, 2026, 20:59 UTC

1 21940U 92021B   26256.87448252 -.00000040  00000-0  00000+0 0  9995
2 21940  12.2422  15.1714 0008634 179.1501 174.3657  0.97942074 51512

Volg INMARSAT 2-F4 in realtime met AllMySat

Download on the App Store